sat.trackr.live / text

‹ back to catalog

STARLINK-36455

NORAD 67418 · 2026-005Q

PAYLOAD ACTIVE UNKNOWN

§ Identity

Operator
Country
US
Launch date
2026-01-12
Launch site
AFETR
Launch vehicle
Mass (kg)
RCS (m²)

Purposes: comms

External: N2YO · Heavens-Above · Gunter

§ Orbital elements

Epoch: 2026-09-19T22:25:03.870048Z

Period
94.27 min
Inclination
43.0017°
Eccentricity
0.0000618
Mean motion
15.27594697 rev/d
Perigee alt
482.6 km
Apogee alt
483.4 km
Semi-major
6,861.1 km
B*
4.7958e-4
RAAN
220.9928°
Arg perigee
313.9538°
Mean anomaly
46.1263°
Rev number
3,840

§ Raw data

STARLINK-364551 67418U 26005Q   26262.93407257  .00012964  00000+0  47958-3 0  99912 67418  43.0017 220.9928 0000618 313.9538  46.1263 15.27594697 38404

JSON: /api/v1/satellites/67418 · /tle

For live sub-satellite position, see the globe view (requires WebGL).

§ Visibility from observer

Set your observer location to see the next 7 days of passes ≥ 10°. The values pass through the URL so the page stays shareable.

No JS? Fill the form by hand. The geolocation button needs JavaScript.